Mombasa, Kenya

8:49 AM EAT on October 18, 2017 (GMT +0300)
Mombasa

Weather History for HKMO - June, 2013

Change the Weather History Date:

Saturday, June 15, 2013

  Actual Average Record
Temperature  
Mean Temperature 77 °F -  
Max Temperature 84 °F 84 °F 86 °F (2006)
Min Temperature 70 °F 68 °F 69 °F (2000)
Cooling Degree Days 12    
Growing Degree Days 27 (Base 50)    
Moisture  
Dew Point 71 °F    
Average Humidity 79    
Maximum Humidity 94    
Minimum Humidity 59    
Precipitation  
Precipitation 0.00 in 0.11 in - ()
Sea Level Pressure  
Sea Level Pressure 29.98 in    
Wind  
Wind Speed 6 mph ()    
Max Wind Speed 18 mph    
Max Gust Speed -    
Visibility 7.8 miles    
Events      
Averages and records for this station are not official NWS values.
T = Trace of Precipitation, MM = Missing Value Source: Averaged Metar Reports

Daily Weather History Graph

Daily Weather History Graph

Search for Another Location

Airport or City:

Trip Planner

Search our weather history database for the weather conditions in past years. The results will help you decide how hot, cold, wet, or windy it might be!

Date:

Astronomy

Jun. 15, 2013 Rise Set
Actual Time 6:25 AM EAT 6:18 PM EAT
Civil Twilight 6:02 AM EAT 6:41 PM EAT
Nautical Twilight 5:36 AM EAT 7:07 PM EAT
Astronomical Twilight 5:10 AM EAT 7:33 PM EAT
Moon 11:20 AM EAT (6/15) 11:40 PM EAT (6/15)
Length of Visible Light 12h 38m
Length of Day
11h 53m
Waxing Crescent, 36% of the Moon is Illuminated
Jun 15
Waxing Crescent
Jun 16
First Quarter
Jun 23
Full
Jun 30
Last Quarter
Jul 8
New

Hourly Weather History & Observations

Time (EAT) Temp. Heat Index Dew Point Humidity Pressure Visibility Wind Dir Wind Speed Gust Speed Precip Events Conditions
12:00 AM 77.0 °F - 71.6 °F 83% 29.95 in 6.2 mi SSE 4.6 mph - N/A   Partly Cloudy
12:30 AM 77.0 °F - 71.6 °F 83% 29.95 in 6.2 mi SSW 3.5 mph - N/A   Partly Cloudy
2:00 AM 77.0 °F - 71.6 °F 83% 29.95 in 6.2 mi Calm Calm - N/A   Partly Cloudy
3:00 AM 76 °F - 72 °F 82% 29.95 in 19 mi South 5.8 mph - -   Scattered Clouds
3:00 AM 75.2 °F - 71.6 °F 89% 29.95 in 6.2 mi South 5.8 mph - N/A   Partly Cloudy
4:00 AM 73.4 °F - 71.6 °F 94% 29.95 in 6.2 mi SSW 4.6 mph - N/A   Partly Cloudy
5:00 AM 73.4 °F - 71.6 °F 94% 29.95 in 6.2 mi SW 4.6 mph - N/A   Partly Cloudy
6:00 AM 71.6 °F - 69.8 °F 94% 29.98 in 6.2 mi SW 4.6 mph - N/A   Scattered Clouds
7:00 AM 73.4 °F - 69.8 °F 88% 30.01 in 6.2 mi SW 5.8 mph - N/A   Partly Cloudy
8:00 AM 75.2 °F - 71.6 °F 89% 30.01 in 6.2 mi WSW 3.5 mph - N/A   Scattered Clouds
9:00 AM 78 °F - 72 °F 77% 30.04 in 19 mi South 9.2 mph - -   Scattered Clouds
9:00 AM 78.8 °F - 71.6 °F 78% 30.04 in 6.2 mi South 9.2 mph - N/A   Mostly Cloudy
10:00 AM 80.6 °F 84.6 °F 71.6 °F 74% 30.04 in 6.2 mi South 12.7 mph - N/A   Mostly Cloudy
11:00 AM 82.4 °F 86.3 °F 69.8 °F 66% 30.01 in 6.2 mi South 18.4 mph - N/A   Mostly Cloudy
12:00 PM 84.2 °F 88.4 °F 69.8 °F 62% 30.01 in 6.2 mi SSE 13.8 mph - N/A   Scattered Clouds
1:00 PM 84.2 °F 88.4 °F 69.8 °F 62% 29.98 in 6.2 mi SSE 5.8 mph - N/A   Scattered Clouds
2:00 PM 82.4 °F 87.2 °F 71.6 °F 70% 29.95 in 6.2 mi SE 5.8 mph - N/A   Scattered Clouds
3:00 PM 82 °F - 70 °F 59% 29.94 in 12 mi South 11.5 mph - -   Mostly Cloudy
3:00 PM 82.4 °F 86.3 °F 69.8 °F 66% 29.95 in 6.2 mi South 11.5 mph - N/A   Mostly Cloudy
5:00 PM 78.8 °F - 71.6 °F 78% 29.92 in 6.2 mi South 5.8 mph - N/A   Mostly Cloudy
6:00 PM 78.8 °F - 73.4 °F 83% 30.01 in 6.2 mi South 4.6 mph - N/A   Scattered Clouds
7:00 PM 78.8 °F - 71.6 °F 78% 29.95 in 6.2 mi South 5.8 mph - N/A   Partly Cloudy
8:00 PM 77.0 °F - 71.6 °F 83% 29.98 in 6.2 mi South 4.6 mph - N/A   Partly Cloudy
9:00 PM 77 °F - 71 °F 78% 29.97 in 19 mi SSE 11.5 mph - -   Scattered Clouds
9:00 PM 77.0 °F - 71.6 °F 83% 29.98 in 6.2 mi SSE 11.5 mph - N/A   Partly Cloudy
9:30 PM 77.0 °F - 71.6 °F 83% 29.98 in 6.2 mi South 11.5 mph - N/A   Partly Cloudy
11:00 PM 77.0 °F - 71.6 °F 83% 29.98 in 6.2 mi South 3.5 mph - N/A   Scattered Clouds